星链-35238(STARLINK-35238)

导读 | 豆包AI

STARLINK-35238是美国于2025年9月29日发射的星链卫星,隶属于SpaceX公司主导的星链星座项目。星链项目旨在构建全球卫星互联网,为全球偏远地区、海洋空域等提供低延迟宽带网络服务,该卫星是星链大规模组网进程中,用于扩充星座容量、提升服务覆盖与性能的又一颗组网卫星。

基本信息
目录编号:
65841
目录名称:
STARLINK-35238
国际标识:
2025-221U
轨道中心:
EARTH
卫星名称:
星链-35238
卫星全名:
星链-35238(STARLINK-35238)
卫星状态:
已陨落 最后检测时间 2026-01-29
发射日期:
2025-09-29 UTC
国别 :
美国 (US)
星等 :
--
轨道信息
数据来源 国际轨道数据
星历时间: 2026-01-29T12:17:31+0800
轨道信息已过期90天
半长轴: 6597.945km
偏心率: 0.0002849
轨道倾角: 53.152°
近地点辐角 19.824°
升交点赤经 256.096°
平近点角 340.291°
近地点: 217.928km
远地点: 221.688km
周期: 88.894分钟
每日圈数: 16.199057
详细信息
固有亮度:
5
最大亮度:
2.5
卫星平台:
Starlink V1.0
覆盖范围:
全球
运营商:
太空探索技术公司
运营商所在国:
美国
制造商(研发单位):
太空探索技术公司
制造商所在国:
美国
使用方式:
暂无
卫星简介
Starlink 计划是 SpaceX 推出的全球卫星互联网项目,通过发射低轨道卫星,为全球尤其是偏远地区提供高速、低延迟的互联网服务。自 2019 年起,Starlink 已部署数千颗卫星,旨在缩小全球数字鸿沟,推动互联网普及。该项目还为军事、航空等行业提供通信支持,带来广泛经济效益。